Back to catalog

STARLINK-35739

AliveCommunicationsVLEO
NORAD 67053·PAYLOAD·🇺🇸 United States

Launched Dec 11, 2025 from Cape Canaveral Space Force Station

Loading…

Next Passes (next 24 hours)

TLE

FreshSource: CelesTrak SupGP

Epoch: Sep 14, 2026, 21:05 UTC

1 67053C 25294Z   26257.87895833  .00055343  00000+0  20046-2 0  2576
2 67053  43.0035  49.7710 0001792 274.2190  12.7790 15.27548688    11

Track STARLINK-35739 in real time with AllMySat

Download on the App Store